{"data":{"norad_id":62063,"intl_designator":"2024-217G","name":"STARLINK-11427 [DTC]","alt_names":[],"object_type":"PAYLOAD","status":"ACTIVE","operator":null,"country":"US","launch_date":"2024-11-24","launch_site_code":"AFWTR","launch_vehicle":null,"mission":null,"orbit_class":"UNKNOWN","rcs_meters":null,"size_class":null,"mass_kg":null,"dimensions":null,"purposes":["comms"],"wikipedia_slug":null,"has_3d_model":false,"image_url":null,"decayed_at":null,"tle_current":{"epoch":"2026-09-21T07:10:32.596032Z","epoch_age_seconds":112138,"freshness":"FRESH","line1":"1 62063U 24217G   26264.29898838  .00127313  00000+0  10378-2 0  9995","line2":"2 62063  53.1578 187.1598 0001254 122.5204 237.5935 15.69753500105893","mean_motion":15.697535,"eccentricity":0.0001254,"inclination_deg":53.1578,"raan_deg":187.1598,"arg_perigee_deg":122.5204,"mean_anomaly_deg":237.5935,"bstar":0.0010378,"rev_number":10589,"period_min":91.734148068471,"perigee_km":358.75736044048,"apogee_km":360.44718545013,"semimajor_km":6737.7392729453,"source":"CELESTRAK","updated_at":"2026-09-22T09:00:49.492738Z"}}}